This demonstration page uses our WeatherBlox Daily Observations layout. Learn more.

Left ArrowRight Arrow

Hourly Observations for April 4, 2019

Temp ( °F °C ) Dew Point ( °F °C ) Humidity (%) Winds ( mph kmh ) Pressure ( in mb ) Visibility ( mi km ) Precip ( " mm )
12:15 am 00:15 Cloudy 43 6.2 40 4.6 90 90 NE 12 19 30.06 1018 7 11 0.00 0.00
12:35 am 00:35 Cloudy 43 6.2 40 4.7 90 90 ENE 13 20 30.06 1018 7 11 0.00 0.00
12:55 am 00:55 Cloudy 43 6.1 40 4.7 91 91 ENE 14 22 30.06 1018 7 11 0.00 0.00
1:15 am 01:15 Cloudy 43 6 40 4.7 91 91 ENE 12 19 30.07 1018 7 11 0.00 0.00
1:35 am 01:35 Cloudy 43 6 40 4.7 91 91 NE 14 22 30.07 1018 7 11 0.00 0.00
1:55 am 01:55 Cloudy 43 6 40 4.7 91 91 ENE 14 22 30.07 1018 7 11 0.00 0.00
2:15 am 02:15 Cloudy 43 6 40 4.6 91 91 NE 12 19 30.07 1018 7 11 0.00 0.00
2:35 am 02:35 Cloudy 42 5.8 40 4.5 91 91 NE 9 15 30.07 1018 7 11 0.00 0.00
2:55 am 02:55 Cloudy 42 5.7 40 4.5 92 92 NE 12 19 30.08 1019 7 11 0.00 0.00
3:15 am 03:15 Cloudy 42 5.7 40 4.5 92 92 NE 12 19 30.08 1019 7 11 0.00 0.00
3:35 am 03:35 Cloudy 42 5.5 40 4.3 92 92 NE 10 17 30.08 1019 7 11 0.00 0.00
3:55 am 03:55 Cloudy with Mist and Fog 42 5.5 40 4.3 92 92 NE 10 17 30.08 1019 5 8 0.00 0.00
4:15 am 04:15 Cloudy with Mist and Fog 42 5.5 40 4.3 92 92 NE 9 15 30.09 1019 5 8 0.00 0.00
4:35 am 04:35 Cloudy with Mist and Fog 42 5.4 40 4.2 92 92 ENE 8 13 30.09 1019 5 8 0.00 0.00
4:55 am 04:55 Cloudy with Mist and Fog 42 5.3 40 4.2 93 93 ENE 8 13 30.09 1019 5 8 0.00 0.00
5:15 am 05:15 Cloudy with Mist and Fog 41 5.2 40 4.2 93 93 NE 8 13 30.10 1019 4 6 0.00 0.00
5:35 am 05:35 Cloudy with Mist and Fog 41 5.1 39 4.1 93 93 NE 7 11 30.11 1020 4 6 0.00 0.00
5:55 am 05:55 Cloudy with Mist and Fog 41 5 39 4 93 93 NE 8 13 30.11 1020 3 5 0.00 0.00
6:15 am 06:15 Cloudy with Mist and Fog 41 5 39 4.1 94 94 NE 8 13 30.10 1019 3 4 0.00 0.00
6:35 am 06:35 Cloudy with Mist and Fog 41 5 39 4 93 93 NE 9 15 30.11 1020 3 4 0.00 0.00
6:55 am 06:55 Cloudy with Mist and Fog 41 5 39 4 93 93 NNE 9 15 30.11 1020 3 4 0.00 0.00
7:15 am 07:15 Cloudy with Mist and Fog 41 5 39 4.1 94 94 NNE 6 9 30.11 1020 3 4 0.00 0.00
7:35 am 07:35 Cloudy with Mist and Fog 41 4.9 39 4 94 94 NNE 6 9 30.12 1020 1 2 0.00 0.00
7:55 am 07:55 Cloudy with Mist and Fog 41 4.9 39 4.1 95 95 N 5 7 30.12 1020 2 3 0.00 0.00
8:15 am 08:15 Cloudy with Mist and Fog 41 5 40 4.2 95 95 N 6 9 30.13 1020 3 5 0.00 0.00
8:35 am 08:35 Cloudy with Mist and Fog 41 5.1 40 4.3 95 95 N 6 9 30.14 1021 4 6 0.00 0.00
8:55 am 08:55 Cloudy with Mist and Fog 41 5.2 40 4.3 94 94 N 6 9 30.15 1021 2 3 0.00 0.00
9:15 am 09:15 Cloudy with Mist and Fog 42 5.5 40 4.5 93 93 NNW 5 7 30.15 1021 5 8 0.00 0.00
9:35 am 09:35 Cloudy 43 6 40 4.5 90 90 N 6 9 30.15 1021 7 11 0.00 0.00
9:55 am 09:55 Cloudy 43 6.2 40 4.4 88 88 NNE 3 6 30.14 1021 10 16 0.00 0.00
10:15 am 10:15 Cloudy 44 6.5 40 4.6 88 88 ENE 6 9 30.13 1020 10 16 0.00 0.00
10:35 am 10:35 Cloudy 44 6.8 41 4.8 87 87 NNE 5 7 30.13 1020 10 16 0.00 0.00
10:55 am 10:55 Cloudy 44 6.8 40 4.5 85 85 Calm 30.14 1021 10 16 0.00 0.00
11:15 am 11:15 Cloudy 45 7 40 4.6 85 85 Calm 30.13 1020 10 16 0.00 0.00
11:35 am 11:35 Cloudy 45 7.1 40 4.7 85 85 Calm 30.14 1021 10 16 0.00 0.00
11:55 am 11:55 Cloudy 46 7.5 41 4.9 84 84 Calm 30.12 1020 10 16 0.00 0.00
12:15 pm 12:15 Cloudy 46 7.7 41 4.8 82 82 Calm 30.11 1020 10 16 0.00 0.00
12:35 pm 12:35 Cloudy 47 8.1 41 4.8 80 80 Calm 30.11 1020 10 16 0.00 0.00
12:55 pm 12:55 Cloudy 47 8.3 41 4.9 79 79 Calm 30.10 1019 10 16 0.00 0.00
1:15 pm 13:15 Cloudy 48 9 42 5.3 78 78 Calm 30.10 1019 10 16 0.00 0.00
1:30 pm 13:30 Cloudy 49 9.3 42 5.3 76 76 S 3 6 30.09 1019 10 16 0.00 0.00
1:55 pm 13:55 Cloudy 51 10.4 43 6.1 75 75 Calm 30.06 1018 10 16 0.00 0.00
2:15 pm 14:15 Partly Cloudy 52 10.9 43 6 72 72 SE 5 7 30.05 1018 10 16 0.00 0.00
2:35 pm 14:35 Partly Cloudy 53 11.8 44 6.5 70 70 E 5 7 30.03 1017 10 16 0.00 0.00
2:55 pm 14:55 Sunny 54 12.1 44 6.4 68 68 E 3 6 30.02 1017 10 16 0.00 0.00
3:15 pm 15:15 Sunny 55 12.8 43 6.3 65 65 E 5 7 30.01 1016 10 16 0.00 0.00
3:35 pm 15:35 Sunny 57 14.1 44 6.9 62 62 SE 5 7 29.98 1015 10 16 0.00 0.00
3:55 pm 15:55 Sunny 59 14.9 45 7.2 60 60 S 7 11 29.97 1015 10 16 0.00 0.00
4:15 pm 16:15 Sunny 61 15.9 45 7.4 57 57 SE 6 9 29.95 1014 10 16 0.00 0.00
4:35 pm 16:35 Partly Cloudy 62 16.6 45 7.3 54 54 SE 7 11 29.93 1014 10 16 0.00 0.00
4:55 pm 16:55 Partly Cloudy 63 17.4 45 7 51 51 SW 5 7 29.92 1013 10 16 0.00 0.00
5:15 pm 17:15 Sunny 63 17.3 45 7.1 51 51 SW 8 13 29.93 1013 10 16 0.00 0.00
5:35 pm 17:35 Sunny 63 17.1 44 6.5 50 50 SW 6 9 29.93 1013 10 16 0.00 0.00
5:55 pm 17:55 Sunny 63 17.1 44 6.7 51 51 S 6 9 29.93 1013 10 16 0.00 0.00
6:15 pm 18:15 Sunny 63 17.3 44 6.7 50 50 S 8 13 29.93 1013 10 16 0.00 0.00
6:35 pm 18:35 Sunny 64 17.5 44 6.5 49 49 SSW 8 13 29.92 1013 10 16 0.00 0.00
6:55 pm 18:55 Sunny 61 16.2 44 6.5 53 53 SSW 7 11 29.94 1014 10 16 0.00 0.00
7:15 pm 19:15 Sunny 61 16.3 45 7 54 54 S 7 11 29.93 1014 10 16 0.00 0.00
7:35 pm 19:35 Sunny 59 15.2 44 6.7 57 57 S 8 13 29.94 1014 10 16 0.00 0.00
7:55 pm 19:55 Sunny 57 13.8 45 7.1 64 64 S 7 11 29.96 1014 10 16 0.00 0.00
8:15 pm 20:15 Clear 55 13 44 6.8 66 66 SSE 7 11 29.96 1015 10 16 0.00 0.00
8:35 pm 20:35 Clear 53 11.8 43 6.3 69 69 S 7 11 29.97 1015 10 16 0.00 0.00
8:55 pm 20:55 Clear 52 10.9 43 6.1 72 72 S 6 9 29.98 1015 10 16 0.00 0.00
9:15 pm 21:15 Clear 52 10.9 43 6.1 72 72 SSE 7 11 29.99 1016 10 16 0.00 0.00
9:35 pm 21:35 Clear 51 10.6 43 6.1 74 74 SSE 6 9 30.01 1016 10 16 0.00 0.00
9:55 pm 21:55 Clear 51 10.6 43 6.1 74 74 SSE 6 9 30.01 1016 10 16 0.00 0.00
10:15 pm 22:15 Clear 51 10.6 43 6.2 74 74 SE 6 9 30.01 1016 10 16 0.00 0.00
10:35 pm 22:35 Clear 49 9.5 42 5.7 77 77 SSE 6 9 30.03 1017 10 16 0.00 0.00
10:55 pm 22:55 Mostly Cloudy 49 9.3 42 5.7 78 78 SSE 7 11 30.02 1017 10 16 0.00 0.00
11:15 pm 23:15 Mostly Cloudy 48 8.9 42 5.7 81 81 SSE 7 11 30.01 1016 10 16 0.00 0.00
11:35 pm 23:35 Partly Cloudy 50 9.8 43 6 77 77 SE 7 11 30.00 1016 10 16 0.00 0.00
11:50 pm 23:50 Clear 50 9.8 43 6 77 77 SE 7 11 29.99 1016 10 16 0.00 0.00

Powered by AerisWeather